This demonstration page uses our WeatherBlox Daily Observations layout. Learn more.

Left ArrowRight Arrow

Hourly Observations for August 28, 2018

Temp ( °F °C ) Dew Point ( °F °C ) Humidity (%) Winds ( mph kmh ) Pressure ( in mb ) Visibility ( mi km ) Precip ( " mm )
12:15 am 00:15 Clear 76 24.4 71 21.7 85 85 S 9 15 30.00 1016 10 16 0.00 0.00
12:35 am 00:35 Clear 76 24.2 71 21.6 85 85 S 10 17 30.00 1016 10 16 0.00 0.00
12:55 am 00:55 Clear 75 24.1 71 21.5 85 85 S 9 15 30.00 1016 10 16 0.00 0.00
1:15 am 01:15 Clear 75 23.9 70 21.2 85 85 S 12 19 30.00 1016 10 16 0.00 0.00
1:35 am 01:35 Clear 75 23.8 70 21.2 85 85 S 12 19 30.00 1016 10 16 0.00 0.00
1:55 am 01:55 Clear 74 23.6 70 21.1 86 86 S 10 17 30.00 1016 10 16 0.00 0.00
2:15 am 02:15 Clear 74 23.5 70 21.1 86 86 S 9 15 30.00 1016 10 16 0.00 0.00
2:35 am 02:35 Clear 74 23.2 70 21.1 88 88 S 8 13 30.00 1016 10 16 0.00 0.00
2:55 am 02:55 Clear 73 22.9 70 21.1 90 90 S 8 13 30.00 1016 10 16 0.00 0.00
3:15 am 03:15 Clear 73 22.5 70 21.1 92 92 S 7 11 30.00 1016 10 16 0.00 0.00
3:35 am 03:35 Clear 72 22.3 70 21 92 92 S 8 13 30.00 1016 10 16 0.00 0.00
3:55 am 03:55 Clear 72 22.1 70 21 94 94 S 8 13 30.00 1016 10 16 0.00 0.00
4:15 am 04:15 Clear 72 22 70 21 94 94 S 7 11 30.00 1016 10 16 0.00 0.00
4:35 am 04:35 Clear 71 21.7 70 21 96 96 S 7 11 30.00 1016 10 16 0.00 0.00
4:55 am 04:55 Clear 71 21.7 70 21 96 96 S 7 11 30.00 1016 10 16 0.00 0.00
5:15 am 05:15 Clear 71 21.7 70 21 96 96 S 7 11 30.06 1018 10 16 0.00 0.00
5:35 am 05:35 Clear 71 21.6 70 21 96 96 S 7 11 30.06 1018 10 16 0.00 0.00
5:55 am 05:55 Clear 70 21.2 69 20.7 97 97 S 6 9 30.06 1018 10 16 0.00 0.00
6:15 am 06:15 Clear 70 21.1 69 20.7 98 98 S 8 13 30.06 1018 10 16 0.00 0.00
6:35 am 06:35 Clear 70 21.3 69 20.7 96 96 S 6 9 30.06 1018 10 16 0.00 0.00
6:55 am 06:55 Clear 70 21.3 69 20.7 96 96 S 7 11 30.06 1018 10 16 0.00 0.00
7:15 am 07:15 Sunny 70 21.3 69 20.7 96 96 S 7 11 30.06 1018 10 16 0.00 0.00
7:35 am 07:35 Sunny 71 21.5 69 20.7 95 95 SSW 7 11 30.06 1018 10 16 0.00 0.00
7:55 am 07:55 Sunny 72 22 70 21 94 94 SSW 7 11 30.03 1017 10 16 0.00 0.00
8:15 am 08:15 Sunny 73 22.6 70 21.2 92 92 SSW 9 15 30.03 1017 10 16 0.00 0.00
8:35 am 08:35 Sunny 74 23.3 71 21.4 89 89 SSW 10 17 30.03 1017 10 16 0.00 0.00
8:55 am 08:55 Sunny 75 23.9 71 21.5 86 86 S 10 17 30.03 1017 10 16 0.00 0.00
9:15 am 09:15 Sunny 76 24.5 71 21.7 84 84 SSW 10 17 30.03 1017 10 16 0.00 0.00
9:35 am 09:35 Sunny 77 25 72 22.1 84 84 SW 12 19 30.03 1017 10 16 0.00 0.00
9:55 am 09:55 Sunny 78 25.4 72 22.2 83 83 SW 12 19 30.03 1017 10 16 0.00 0.00
10:15 am 10:15 Sunny 79 26.3 73 22.5 80 80 SW 13 20 30.03 1017 10 16 0.00 0.00
10:35 am 10:35 Sunny 80 26.7 73 22.5 78 78 SW 15 24 30.03 1017 10 16 0.00 0.00
10:55 am 10:55 Sunny 81 27 73 22.5 76 76 SSW 14 22 30.03 1017 10 16 0.00 0.00
11:15 am 11:15 Sunny 82 27.5 74 23.1 77 77 SW 12 19 30.03 1017 10 16 0.00 0.00
11:35 am 11:35 Sunny 82 27.9 74 23.2 76 76 SW 12 19 30.03 1017 10 16 0.00 0.00
11:55 am 11:55 Sunny 83 28.5 74 23.1 73 73 SW 15 24 30.03 1017 10 16 0.00 0.00
12:15 pm 12:15 Sunny 84 28.8 73 22.9 70 70 SW 17 28 30.03 1017 10 16 0.00 0.00
12:35 pm 12:35 Partly Cloudy 84 29.1 74 23.1 70 70 SSW 14 22 30.03 1017 10 16 0.00 0.00
12:55 pm 12:55 Mostly Cloudy 83 28.6 73 22.5 70 70 WSW 13 20 30.03 1017 10 16 0.00 0.00
1:15 pm 13:15 Mostly Cloudy 85 29.4 74 23.5 71 71 WSW 15 24 30.03 1017 10 16 0.00 0.00
1:35 pm 13:35 Partly Cloudy 85 29.5 74 23.4 70 70 WSW 10 17 30.03 1017 10 16 0.00 0.00
1:55 pm 13:55 Partly Cloudy 85 29.7 74 23.6 70 70 SW 13 20 30.03 1017 10 16 0.00 0.00
2:15 pm 14:15 Partly Cloudy 85 29.5 74 23.6 71 71 SW 9 15 30.03 1017 10 16 0.00 0.00
2:35 pm 14:35 Mostly Cloudy 86 30.1 75 23.8 69 69 SW 12 19 30.03 1017 10 16 0.00 0.00
2:55 pm 14:55 Partly Cloudy 86 30.1 75 23.9 69 69 SSW 10 17 30.03 1017 10 16 0.00 0.00
3:15 pm 15:15 Partly Cloudy 85 29.3 74 23.4 71 71 SSW 15 24 30.03 1017 10 16 0.00 0.00
3:35 pm 15:35 Partly Cloudy 85 29.6 74 23.6 70 70 SSW 12 19 30.03 1017 10 16 0.00 0.00
3:55 pm 15:55 Partly Cloudy 85 29.3 74 23.4 71 71 SSW 12 19 30.00 1016 10 16 0.00 0.00
4:15 pm 16:15 Partly Cloudy 85 29.6 74 23.3 69 69 SSW 10 17 30.00 1016 10 16 0.00 0.00
4:35 pm 16:35 Partly Cloudy 86 30.2 75 23.7 68 68 SW 14 22 30.00 1016 10 16 0.00 0.00
4:55 pm 16:55 Partly Cloudy 87 30.5 75 23.9 68 68 SSW 13 20 30.00 1016 10 16 0.00 0.00
5:15 pm 17:15 Partly Cloudy 87 30.3 74 23.4 67 67 SSW 13 20 30.00 1016 10 16 0.00 0.00
5:35 pm 17:35 Partly Cloudy 85 29.6 73 22.7 66 66 SW 10 17 30.00 1016 10 16 0.00 0.00
5:55 pm 17:55 Sunny 85 29.7 73 22.6 66 66 SSW 10 17 29.97 1015 10 16 0.00 0.00
6:15 pm 18:15 Sunny 85 29.5 72 22.1 64 64 SSW 13 20 29.97 1015 10 16 0.00 0.00
6:35 pm 18:35 Sunny 85 29.5 71 21.6 63 63 SW 10 17 30.00 1016 10 16 0.00 0.00
6:55 pm 18:55 Sunny 85 29.2 72 22.4 67 67 SW 8 13 30.00 1016 10 16 0.00 0.00
7:15 pm 19:15 Sunny 84 28.9 72 22.2 67 67 SSW 8 13 30.00 1016 10 16 0.00 0.00
7:35 pm 19:35 Sunny 83 28.3 72 22.1 69 69 SSW 8 13 30.00 1016 10 16 0.00 0.00
7:55 pm 19:55 Sunny 82 27.5 72 22.1 72 72 SSW 7 11 30.00 1016 10 16 0.00 0.00
8:15 pm 20:15 Sunny 79 26 73 22.7 82 82 S 5 7 30.00 1016 10 16 0.00 0.00
8:35 pm 20:35 Clear 77 25.2 73 22.5 85 85 S 6 9 29.97 1015 10 16 0.00 0.00
8:55 pm 20:55 Clear 77 25.2 72 22.2 84 84 S 7 11 29.97 1015 10 16 0.00 0.00
9:15 pm 21:15 Clear 77 25.1 72 22.1 83 83 S 8 13 29.94 1014 10 16 0.00 0.00
9:35 pm 21:35 Clear 78 25.4 72 22 82 82 S 7 11 29.94 1014 10 16 0.00 0.00
9:55 pm 21:55 Clear 78 25.6 72 22 81 81 S 9 15 29.97 1015 10 16 0.00 0.00
10:15 pm 22:15 Clear 78 25.5 72 22.1 82 82 SSW 9 15 29.97 1015 10 16 0.00 0.00
10:35 pm 22:35 Clear 78 25.5 72 22.1 82 82 SSW 9 15 30.00 1016 10 16 0.00 0.00
10:55 pm 22:55 Clear 78 25.5 72 22.2 82 82 SSW 8 13 30.00 1016 10 16 0.00 0.00
11:15 pm 23:15 Clear 77 25.2 72 22.2 84 84 SSW 8 13 30.00 1016 10 16 0.00 0.00
11:35 pm 23:35 Clear 77 25 72 22.2 85 85 SSW 9 15 30.00 1016 10 16 0.00 0.00
11:55 pm 23:55 Clear 77 25.1 72 22.2 84 84 SSW 10 17 30.00 1016 10 16 0.00 0.00

Powered by AerisWeather